Weather History for KMQE - November, 2012

Change the Weather History Date:

Sunday, November 11, 2012

  Actual Average (KBOS) Record (KBOS)
Temperature  
Mean Temperature 52 °F 46 °F  
Max Temperature 61 °F 53 °F 69 °F (1966)
Min Temperature 42 °F 39 °F 24 °F (1901)
Degree Days  
Heating Degree Days 14 19  
Month to date heating degree days 192  
Since 1 July heating degree days 639  
Cooling Degree Days 0 0  
Month to date cooling degree days 0  
Year to date cooling degree days 747  
Growing Degree Days 2 (Base 50)    
Moisture  
Dew Point 42 °F    
Average Humidity 73    
Maximum Humidity 86    
Minimum Humidity 50    
Precipitation  
Precipitation 0.00 in 0.13 in 1.10 in (1991)
Month to date precipitation 1.42  
Year to date precipitation 37.42  
Sea Level Pressure  
Sea Level Pressure 30.49 in    
Wind  
Wind Speed 14 mph (South)    
Max Wind Speed 20 mph    
Max Gust Speed 26 mph    
T = Trace of Precipitation, MM = Missing Value Source: NWS Daily Summary

Daily Weather History Graph

Daily Weather History Graph

Search for Another Location

Airport or City:

Trip Planner

Search our weather history database for the weather conditions in past years. The results will help you decide how hot, cold, wet, or windy it might be!

Date:

Astronomy

Nov. 11, 2012 Rise Set
Actual Time 6:30 AM EST 4:26 PM EST
Civil Twilight 6:00 AM EST 4:55 PM EST
Nautical Twilight 5:26 AM EST 5:29 PM EST
Astronomical Twilight 4:53 AM EST 6:02 PM EST
Moon 3:38 AM EST (11/11) 2:49 PM EST (11/11)
Length of Visible Light 10h 55m
Length of Day
9h 55m
Waning Crescent, 7% of the Moon is Illuminated
Nov 11
Waning Crescent
Nov 13
New
Nov 20
First Quarter
Nov 28
Full
Dec 6
Last Quarter

Hourly Weather History & Observations

Time (EST) Temp. Windchill Dew Point Humidity Pressure Visibility Wind Dir Wind Speed Gust Speed Precip Events Conditions
12:54 AM 42.1 °F 35.2 °F 34.0 °F 73% 30.47 in - South 12.7 mph - N/A   Unknown
1:54 AM 43.0 °F 36.8 °F 37.0 °F 80% 30.48 in - SSE 11.5 mph - N/A   Unknown
2:54 AM 44.1 °F 38.1 °F 37.0 °F 76% 30.48 in - SSE 11.5 mph - N/A   Unknown
3:54 AM 45.0 °F 38.5 °F 37.0 °F 74% 30.48 in - South 13.8 mph 20.7 mph N/A   Unknown
4:54 AM 44.1 °F 38.1 °F 39.9 °F 85% 30.52 in - South 11.5 mph - N/A   Unknown
5:54 AM 45.0 °F 38.5 °F 39.9 °F 82% 30.51 in - SSE 13.8 mph - N/A   Unknown
6:54 AM 45.0 °F 37.9 °F 39.9 °F 82% 30.50 in - South 16.1 mph 21.9 mph N/A   Unknown
7:54 AM 46.9 °F - 41.0 °F 80% 30.54 in - South 11.5 mph 19.6 mph N/A   Unknown
8:54 AM 48.0 °F - 42.1 °F 80% 30.50 in - SSE 13.8 mph 21.9 mph N/A   Unknown
9:54 AM 53.1 °F - 44.1 °F 71% 30.51 in - South 16.1 mph 23.0 mph N/A   Unknown
10:54 AM 55.0 °F - 45.0 °F 69% 30.51 in - SSW 12.7 mph 20.7 mph N/A   Unknown
11:54 AM 57.0 °F - 44.1 °F 62% 30.49 in - SSW 13.8 mph - N/A   Unknown
12:54 PM 59.0 °F - 45.0 °F 60% 30.47 in - SSW 10.4 mph - N/A   Unknown
1:54 PM 61.0 °F - 44.1 °F 54% 30.45 in - South 10.4 mph 17.3 mph N/A   Unknown
2:54 PM 61.0 °F - 42.1 °F 50% 30.45 in - SSW 13.8 mph - N/A   Unknown
3:54 PM 57.9 °F - 42.1 °F 56% 30.45 in - SSW 13.8 mph 23.0 mph N/A   Unknown
4:54 PM 55.9 °F - 43.0 °F 62% 30.46 in - South 16.1 mph 23.0 mph N/A   Unknown
5:54 PM 54.0 °F - 44.1 °F 69% 30.47 in - SSW 18.4 mph 26.5 mph N/A   Unknown
6:54 PM 53.1 °F - 45.0 °F 74% 30.48 in - SSW 18.4 mph 25.3 mph N/A   Unknown
7:54 PM 52.0 °F - 46.0 °F 80% 30.48 in - SSW 19.6 mph - N/A   Unknown
8:54 PM 52.0 °F - 46.0 °F 80% 30.49 in - SSW 17.3 mph 24.2 mph N/A   Unknown
9:54 PM 52.0 °F - 46.9 °F 83% 30.50 in - SSW 19.6 mph - N/A   Unknown
10:54 PM 51.1 °F - 46.9 °F 86% 30.49 in - SSW 17.3 mph - N/A   Unknown
11:54 PM 51.1 °F - 46.9 °F 86% 30.49 in - SSW 17.3 mph 23.0 mph N/A   Unknown